Kezdőlap
METAR-TAF:

METAR-TAF

Repülőterek :

Taylorville Municipal Airport

Taylorville, Illinois, Amerikai Egyesült Államok

földrajzi szélesség: 39-32-03N, földrajzi hosszúság: 089-19-40W, magasság: 190 m

Jelenlegi meteorológiai megfigyelések

A jelentés 25 perccel ezelõtt készült, 14:35 UTC
Nyugat-délnyugati szél 5 kt
Hőmérséklet 27°C
Páratartalom 89%
Légköri nyomás 1019 hPa
Látótávolság: 16.1 km
Derült ég

METAR: KTAZ 281435Z AUTO 25005KT 10SM CLR 27/25 A3009 RMK AO2

Idő: 10:00 (15:00 UTC)


TAF: hiányzik

Meteorológiai megfigyelések és előrejelzések több, mint 4000 repülőtéren (METAR és TAF jelentéseket).

A térképen piros és sárga pontok jelzik az elérhető meteorológiai állomásokat.

Mozgassa az egeret a pont fölött, hogy megjelenjen az állomás neve.

Azután kattintson az időjárási megfigyelések és előrejelzések megtekintéséhez.

A térkép megváltoztatása: kattintson a fekete keresztel jelölt zöld gombra ráközelítéshez, a vonallal jelölt zöld gombra távolításhoz, vagy a zöld nyilakra a szomszédos térképek eléréséhez.


METAR-TAF: